Location: *
(45.1961°N, 1.9694°E)
Time: 16:03:21
(UTC+00:00)

BREEZE M DEB (TANK) - Pass Details

Date: 25 August 2019
Orbit: 285 x 14545 km, 49.5° (Epoch: 14 September)

Event Time Altitude Azimuth Distance (km) Brightness Sun altitude
Rises 21:58:31 0° 273° (W) 2,162 5.8 -28.4°
Reaches altitude 10° 21:59:52 10° 280° (W) 1,526 5.1 -28.5°
Enters shadow 22:00:58 24° 291° (WNW) 1,081 4.2 -28.6°
Exits shadow 22:03:36 47° 38° (NE) 1,029 3.7 -28.9°
Drops below altitude 10° 22:11:05 10° 77° (ENE) 4,307 6.7 -29.5°
Sets 22:17:53 0° 82° (E) 7,131 7.8 -30.1°
